TimeAEST,TemperatureF,Dew PointF,Humidity,Sea Level PressureIn,VisibilityMPH,Wind Direction,Wind SpeedMPH,Gust SpeedMPH,PrecipitationIn,Events,Conditions,WindDirDegrees,DateUTC
12:00 AM,69,66,88,30.01,,Calm,Calm,,,,,,2012-09-18 14:00:00
12:00 AM,68.0,66.2,94,30.01,6.2,Calm,Calm,-,N/A,,Partly Cloudy,0,2012-09-18 14:00:00
12:30 AM,68.0,66.2,94,29.98,-9999.0,Calm,Calm,-,N/A,,Clear,0,2012-09-18 14:30:00
1:00 AM,67,65,92,30.00,,Calm,Calm,,,,,,2012-09-18 15:00:00
1:00 AM,66.2,66.2,100,29.98,-9999.0,Calm,Calm,-,N/A,,Clear,0,2012-09-18 15:00:00
1:30 AM,69.8,66.2,88,29.98,-9999.0,SSE,3.5,-,N/A,,Clear,160,2012-09-18 15:30:00
2:00 AM,68.0,66.2,94,29.98,6.2,South,1.2,-,N/A,,Scattered Clouds,180,2012-09-18 16:00:00
2:30 AM,66.2,64.4,94,29.98,6.2,Calm,Calm,-,N/A,,Partly Cloudy,0,2012-09-18 16:30:00
3:00 AM,66,64,91,29.97,,Calm,Calm,,,,,,2012-09-18 17:00:00
3:00 AM,66.2,64.4,94,29.95,6.2,Calm,Calm,-,N/A,,Partly Cloudy,0,2012-09-18 17:00:00
3:30 AM,64.4,64.4,100,29.95,6.2,Calm,Calm,-,N/A,,Partly Cloudy,0,2012-09-18 17:30:00
4:00 AM,65,64,96,29.97,,Calm,Calm,,,,,,2012-09-18 18:00:00
4:00 AM,66.2,64.4,94,29.95,6.2,Calm,Calm,-,N/A,,Partly Cloudy,0,2012-09-18 18:00:00
4:30 AM,66.2,64.4,94,29.95,6.2,Calm,Calm,-,N/A,,Partly Cloudy,0,2012-09-18 18:30:00
5:00 AM,64.4,64.4,100,29.98,-9999.0,Calm,Calm,-,N/A,,Clear,0,2012-09-18 19:00:00
5:30 AM,64.4,64.4,100,29.98,6.2,Calm,Calm,-,N/A,,Partly Cloudy,0,2012-09-18 19:30:00
6:00 AM,66,64,93,29.98,19,Calm,Calm,,,,Partly Cloudy,,2012-09-18 20:00:00
6:00 AM,66.2,64.4,94,29.98,6.2,Calm,Calm,-,N/A,,Partly Cloudy,0,2012-09-18 20:00:00
6:30 AM,68.0,64.4,88,29.98,6.2,West,2.3,-,N/A,,Partly Cloudy,270,2012-09-18 20:30:00
7:00 AM,69,65,84,30.01,,SSE,8.1,,,,,160,2012-09-18 21:00:00
7:00 AM,69.8,64.4,83,30.01,6.2,SSE,8.1,-,N/A,,Partly Cloudy,160,2012-09-18 21:00:00
7:30 AM,71.6,64.4,78,30.01,6.2,SSE,8.1,-,N/A,,Partly Cloudy,160,2012-09-18 21:30:00
8:00 AM,73.4,64.4,73,30.01,6.2,SE,8.1,-,N/A,,Partly Cloudy,140,2012-09-18 22:00:00
8:30 AM,77.0,64.4,65,30.04,6.2,SE,9.2,-,N/A,,Partly Cloudy,130,2012-09-18 22:30:00
9:00 AM,78,64,54,30.04,19,SSE,8.1,,,,Partly Cloudy,160,2012-09-18 23:00:00
9:00 AM,78.8,64.4,61,30.04,6.2,SSE,8.1,-,N/A,,Partly Cloudy,160,2012-09-18 23:00:00
9:30 AM,78.8,64.4,61,30.04,6.2,SE,5.8,-,N/A,,Partly Cloudy,140,2012-09-18 23:30:00
10:00 AM,81,64,46,30.04,,ESE,5.8,,,,,120,2012-09-19 00:00:00
10:00 AM,80.6,64.4,58,30.04,6.2,ESE,5.8,-,N/A,,Partly Cloudy,120,2012-09-19 00:00:00
10:30 AM,82.4,62.6,51,30.01,6.2,East,5.8,-,N/A,,Partly Cloudy,80,2012-09-19 00:30:00
11:00 AM,82.4,64.4,54,30.01,6.2,ENE,8.1,-,N/A,,Partly Cloudy,60,2012-09-19 01:00:00
11:30 AM,82.4,66.2,58,29.98,6.2,NE,13.8,-,N/A,,Partly Cloudy,40,2012-09-19 01:30:00
12:00 PM,83,66,48,29.99,19,ENE,12.7,,,,Partly Cloudy,60,2012-09-19 02:00:00
12:00 PM,84.2,66.2,55,29.98,6.2,ENE,12.7,-,N/A,,Partly Cloudy,60,2012-09-19 02:00:00
12:30 PM,84.2,64.4,51,29.95,6.2,ENE,11.5,-,N/A,,Partly Cloudy,60,2012-09-19 02:30:00
1:00 PM,83,65,46,29.96,,NE,11.5,,,,,40,2012-09-19 03:00:00
1:00 PM,84.2,66.2,55,29.95,6.2,NE,11.5,-,N/A,,Partly Cloudy,40,2012-09-19 03:00:00
1:30 PM,82.4,66.2,58,29.95,6.2,NE,13.8,-,N/A,,Partly Cloudy,40,2012-09-19 03:30:00
2:00 PM,82.4,68.0,62,29.92,6.2,NE,15.0,-,N/A,,Partly Cloudy,40,2012-09-19 04:00:00
2:30 PM,82.4,66.2,58,29.92,6.2,ENE,16.1,-,N/A,,Partly Cloudy,60,2012-09-19 04:30:00
3:00 PM,81,65,50,29.93,19,ENE,16.1,,,,Partly Cloudy,60,2012-09-19 05:00:00
3:00 PM,80.6,66.2,61,29.92,6.2,ENE,16.1,-,N/A,,Partly Cloudy,60,2012-09-19 05:00:00
3:30 PM,80.6,66.2,61,29.92,6.2,ENE,15.0,-,N/A,,Partly Cloudy,60,2012-09-19 05:30:00
4:00 PM,80,64,49,29.93,,ENE,13.8,,,,,70,2012-09-19 06:00:00
4:00 PM,80.6,64.4,58,29.92,6.2,ENE,13.8,-,N/A,,Partly Cloudy,70,2012-09-19 06:00:00
4:30 PM,78.8,66.2,65,29.92,6.2,ENE,11.5,-,N/A,,Partly Cloudy,60,2012-09-19 06:30:00
5:00 PM,78.8,64.4,61,29.92,6.2,NE,10.4,-,N/A,,Partly Cloudy,50,2012-09-19 07:00:00
5:30 PM,77.0,66.2,69,29.95,6.2,ENE,10.4,-,N/A,,Partly Cloudy,60,2012-09-19 07:30:00
6:00 PM,76,65,60,29.96,19,East,6.9,,,,Partly Cloudy,80,2012-09-19 08:00:00
6:00 PM,77.0,64.4,65,29.95,6.2,East,6.9,-,N/A,,Partly Cloudy,80,2012-09-19 08:00:00
6:30 PM,75.2,64.4,69,29.95,6.2,East,9.2,-,N/A,,Partly Cloudy,80,2012-09-19 08:30:00
7:00 PM,74,65,67,29.98,,ESE,5.8,,,,,120,2012-09-19 09:00:00
7:00 PM,73.4,64.4,73,29.98,6.2,ESE,5.8,-,N/A,,Partly Cloudy,120,2012-09-19 09:00:00
7:30 PM,71.6,64.4,78,29.98,6.2,Calm,Calm,-,N/A,,Partly Cloudy,0,2012-09-19 09:30:00
8:00 PM,71.6,64.4,78,29.98,6.2,Calm,Calm,-,N/A,,Partly Cloudy,0,2012-09-19 10:00:00
8:30 PM,69.8,64.4,83,30.01,6.2,SSE,2.3,-,N/A,,Partly Cloudy,160,2012-09-19 10:30:00
9:00 PM,70,64,77,30.01,16,South,2.3,,,,Smoke,170,2012-09-19 11:00:00
9:00 PM,69.8,64.4,83,30.01,6.2,South,2.3,-,N/A,,Partly Cloudy,170,2012-09-19 11:00:00
9:30 PM,71.6,64.4,78,30.01,6.2,SSE,5.8,-,N/A,,Partly Cloudy,150,2012-09-19 11:30:00
10:00 PM,72,65,74,30.02,,SSE,6.9,,,,,160,2012-09-19 12:00:00
10:00 PM,71.6,66.2,83,30.01,6.2,SSE,6.9,-,N/A,,Partly Cloudy,160,2012-09-19 12:00:00
10:30 PM,71.6,64.4,78,30.01,6.2,SSE,6.9,-,N/A,,Partly Cloudy,150,2012-09-19 12:30:00
11:00 PM,71.6,64.4,78,30.01,6.2,SSE,8.1,-,N/A,,Partly Cloudy,150,2012-09-19 13:00:00
11:30 PM,69.8,64.4,83,30.01,6.2,SSE,8.1,-,N/A,,Partly Cloudy,150,2012-09-19 13:30:00